Orbital Elements at Epoch 2459200.5 (2020-Dec-17.0) TDB
Reference: JPL 32 (heliocentric ecliptic J2000)
Element | Value | Uncertainty (1-sigma) | Units |
e | .2044264478570743 | 2.6402e-08 | |
a | 2.227533843017287 | 5.788e-09 | au |
q | 1.772167012007845 | 5.8358e-08 | au |
i | 2.351100788089912 | 3.2329e-06 | deg |
node | 181.1117591949694 | 7.767e-05 | deg |
peri | 136.0679248281987 | 7.8141e-05 | deg |
M | 190.9656449299697 | 9.7567e-06 | deg |
tp | 2459770.673952772881 (2022-Jul-10.17395277) | 3.4193e-05 | TDB |
period | 1214.324880366465 3.32 | 4.7329e-06 1.296e-08 | d yr |
n | .2964610260570115 | 1.1555e-09 | deg/d |
Q | 2.682900674026729 | 6.9712e-09 | au |
|
| | Orbit Determination Parameters
Additional Information
|